,,Stat6,,Stat2,,Stat8,,Stat9,,Stat10,,Wind1,,Wind1,
time,status,PA1M_AVG,status,PR1M_SUM,status,RH1M_AVG,status,SR1M_AVG,status,TA1M_AVG,status,W1dAve1m,status,W1sAve1m,
2007-04-19, 00:00:00,VALID,920.074,VALID,0,VALID,100,VALID,-0.0169808,VALID,19.446,VALID,27,VALID,1.59872,
2007-04-19, 00:01:00,VALID,920.043,VALID,0,VALID,100,VALID,-0.0509425,VALID,19.4495,VALID,34,VALID,1.5767,
2007-04-19, 00:02:00,VALID,920.031,VALID,0,VALID,100,VALID,-0.0849042,VALID,19.4655,VALID,30,VALID,1.42569,
2007-04-19, 00:03:00,VALID,920.009,VALID,0,VALID,99.9428,VALID,-0.0509425,VALID,19.5114,VALID,17,VALID,1.68155,
2007-04-19, 00:04:00,VALID,920.005,VALID,0,VALID,99.7968,VALID,-0.0339617,VALID,19.5595,VALID,30,VALID,1.0169,
2007-04-19, 00:05:00,VALID,919.994,VALID,0,VALID,99.517,VALID,-0.0339617,VALID,19.5466,VALID,17,VALID,1.4008,
2007-04-19, 00:06:00,VALID,919.989,VALID,0,VALID,99.3085,VALID,-0.0339617,VALID,19.5336,VALID,21,VALID,1.08345,
2007-04-19, 00:07:00,VALID,919.994,VALID,0,VALID,99.2386,VALID,-0.0339617,VALID,19.5501,VALID,10,VALID,0.659339,
2007-04-19, 00:08:00,VALID,919.961,VALID,0,VALID,99.2144,VALID,-0.0509425,VALID,19.5468,VALID,360,VALID,0.454397,
2007-04-19, 00:09:00,VALID,919.944,VALID,0,VALID,99.1114,VALID,-0.0339617,VALID,19.5264,VALID,4,VALID,0.562066,
2007-04-19, 00:10:00,VALID,919.928,VALID,0,VALID,99.1089,VALID,-0.0169808,VALID,19.5269,VALID,4,VALID,0.386979,
2007-04-19, 00:11:00,VALID,919.909,VALID,0,VALID,99.1101,VALID,-0.0339617,VALID,19.5206,VALID,4,VALID,0.213224,
2007-04-19, 00:12:00,VALID,919.893,VALID,0,VALID,99.4128,VALID,-0.0679233,VALID,19.5303,VALID,4,VALID,0.174183,
2007-04-19, 00:13:00,VALID,919.872,VALID,0,VALID,99.6836,VALID,-0.0509425,VALID,19.5533,VALID,4,VALID,0.302871,
2007-04-19, 00:14:00,VALID,919.852,VALID,0,VALID,99.7714,VALID,-0.0849042,VALID,19.5503,VALID,4,VALID,0.393787,
2007-04-19, 00:15:00,VALID,919.852,VALID,0,VALID,99.9763,VALID,-0.0339617,VALID,19.5473,VALID,4,VALID,0.364329,
2007-04-19, 00:16:00,VALID,919.828,VALID,0,VALID,100,VALID,-0.0339617,VALID,19.563,VALID,4,VALID,0.272049,
2007-04-19, 00:17:00,VALID,919.827,VALID,0,VALID,100,VALID,-0.0169808,VALID,19.5633,VALID,4,VALID,0.195845,
2007-04-19, 00:18:00,VALID,919.826,VALID,0,VALID,100,VALID,0,VALID,19.5466,VALID,4,VALID,0.105569,
2007-04-19, 00:19:00,VALID,919.816,VALID,0,VALID,100,VALID,0,VALID,19.5436,VALID,355,VALID,0.257813,
2007-04-19, 00:20:00,VALID,919.814,VALID,0,VALID,100,VALID,0,VALID,19.5308,VALID,320,VALID,0.386446,
2007-04-19, 00:21:00,VALID,919.806,VALID,0,VALID,100,VALID,-0.0169808,VALID,19.5171,VALID,320,VALID,0.327009,
2007-04-19, 00:22:00,VALID,919.796,VALID,0,VALID,100,VALID,-0.0169808,VALID,19.5046,VALID,320,VALID,0.268864,
2007-04-19, 00:23:00,VALID,919.777,VALID,0,VALID,100,VALID,-0.0169808,VALID,19.5181,VALID,320,VALID,0.067508,
2007-04-19, 00:24:00,VALID,919.755,VALID,0,VALID,100,VALID,0,VALID,19.5306,VALID,320,VALID,0.0652902,
2007-04-19, 00:25:00,VALID,919.724,VALID,0,VALID,100,VALID,0,VALID,19.5271,VALID,320,VALID,0,
2007-04-19, 00:26:00,VALID,919.697,VALID,0,VALID,100,VALID,-0.0169808,VALID,19.5403,VALID,320,VALID,0.00999273,
2007-04-19, 00:27:00,VALID,919.679,VALID,0,VALID,100,VALID,0,VALID,19.5333,VALID,319,VALID,0.117188,
2007-04-19, 00:28:00,VALID,919.665,VALID,0,VALID,100,VALID,0,VALID,19.5239,VALID,315,VALID,0.0250727,
2007-04-19, 00:29:00,VALID,919.661,VALID,0,VALID,100,VALID,-0.0169808,VALID,19.5079,VALID,315,VALID,0.018821,
2007-04-19, 00:30:00,VALID,919.657,VALID,0,VALID,100,VALID,0,VALID,19.4882,VALID,315,VALID,0.101935,
2007-04-19, 00:31:00,VALID,919.673,VALID,0,VALID,100,VALID,-0.0169808,VALID,19.4887,VALID,353,VALID,0.537861,
2007-04-19, 00:32:00,VALID,919.677,VALID,0,VALID,100,VALID,0,VALID,19.4949,VALID,354,VALID,0.150915,
2007-04-19, 00:33:00,VALID,919.679,VALID,0,VALID,100,VALID,-0.0169808,VALID,19.4754,VALID,354,VALID,0.0643601,
2007-04-19, 00:34:00,VALID,919.678,VALID,0,VALID,100,VALID,0,VALID,19.4622,VALID,354,VALID,0.217685,
2007-04-19, 00:35:00,VALID,919.663,VALID,0,VALID,100,VALID,0,VALID,19.4527,VALID,354,VALID,0.0896739,
2007-04-19, 00:36:00,VALID,919.649,VALID,0,VALID,100,VALID,0,VALID,19.4495,VALID,354,VALID,0,
2007-04-19, 00:37:00,VALID,919.627,VALID,0,VALID,100,VALID,0,VALID,19.4397,VALID,354,VALID,0,
2007-04-19, 00:38:00,VALID,919.607,VALID,0,VALID,100,VALID,-0.0169808,VALID,19.4397,VALID,354,VALID,0.0507813,
2007-04-19, 00:39:00,VALID,919.597,VALID,0,VALID,100,VALID,0,VALID,19.43,VALID,358,VALID,0.526042,
2007-04-19, 00:40:00,VALID,919.599,VALID,0,VALID,100,VALID,0,VALID,19.4465,VALID,360,VALID,0.724144,
2007-04-19, 00:41:00,VALID,919.595,VALID,0,VALID,100,VALID,-0.0169808,VALID,19.4462,VALID,9,VALID,0.854611,
2007-04-19, 00:42:00,VALID,919.603,VALID,0,VALID,100,VALID,-0.0169808,VALID,19.44,VALID,19,VALID,0.927507,
2007-04-19, 00:43:00,VALID,919.59,VALID,0,VALID,100,VALID,-0.0169808,VALID,19.4238,VALID,19,VALID,0.775347,
2007-04-19, 00:44:00,VALID,919.601,VALID,0,VALID,100,VALID,0,VALID,19.3816,VALID,19,VALID,0.636905,
2007-04-19, 00:45:00,VALID,919.584,VALID,0,VALID,100,VALID,-0.0169808,VALID,19.3614,VALID,19,VALID,0.381722,
2007-04-19, 00:46:00,VALID,919.588,VALID,0,VALID,100,VALID,-0.0169808,VALID,19.3716,VALID,19,VALID,0.41061,
2007-04-19, 00:47:00,VALID,919.569,VALID,0,VALID,100,VALID,0.0169808,VALID,19.3651,VALID,19,VALID,0.568979,
2007-04-19, 00:48:00,VALID,919.55,VALID,0,VALID,100,VALID,0,VALID,19.3519,VALID,19,VALID,0.437309,
2007-04-19, 00:49:00,VALID,919.537,VALID,0,VALID,100,VALID,0.0169808,VALID,19.3322,VALID,19,VALID,0.577943,
2007-04-19, 00:50:00,VALID,919.512,VALID,0,VALID,100,VALID,0,VALID,19.3067,VALID,19,VALID,0.488782,
2007-04-19, 00:51:00,VALID,919.5,VALID,0,VALID,100,VALID,-0.0169808,VALID,19.2908,VALID,19,VALID,0.4133,
2007-04-19, 00:52:00,VALID,919.48,VALID,0,VALID,100,VALID,-0.0169808,VALID,19.274,VALID,19,VALID,0.0221037,
2007-04-19, 00:53:00,VALID,919.464,VALID,0,VALID,100,VALID,-0.0169808,VALID,19.2608,VALID,19,VALID,0.0573509,
2007-04-19, 00:54:00,VALID,919.461,VALID,0,VALID,100,VALID,0,VALID,19.2743,VALID,19,VALID,0,
2007-04-19, 00:55:00,VALID,919.458,VALID,0,VALID,100,VALID,0.0169808,VALID,19.2743,VALID,19,VALID,0.0814732,
2007-04-19, 00:56:00,VALID,919.461,VALID,0,VALID,100,VALID,-0.0169808,VALID,19.2708,VALID,19,VALID,0.256098,
2007-04-19, 00:57:00,VALID,919.445,VALID,0,VALID,100,VALID,-0.0169808,VALID,19.284,VALID,19,VALID,0.292111,
2007-04-19, 00:58:00,VALID,919.444,VALID,0,VALID,100,VALID,0.0169808,VALID,19.2773,VALID,19,VALID,0.210582,
2007-04-19, 00:59:00,VALID,919.443,VALID,0,VALID,100,VALID,0,VALID,19.29,VALID,15,VALID,0.60061,
2007-04-19, 01:00:00,VALID,919.432,VALID,0,VALID,100,VALID,-0.0169808,VALID,19.2903,VALID,23,VALID,0.282393,
2007-04-19, 01:01:00,VALID,919.428,VALID,0,VALID,100,VALID,0,VALID,19.2678,VALID,23,VALID,0.139898,
2007-04-19, 01:02:00,VALID,919.428,VALID,0,VALID,100,VALID,0.0169808,VALID,19.2449,VALID,23,VALID,0.0861151,
2007-04-19, 01:03:00,VALID,919.424,VALID,0,VALID,100,VALID,-0.0169808,VALID,19.2646,VALID,23,VALID,0.268973,
2007-04-19, 01:04:00,VALID,919.412,VALID,0,VALID,100,VALID,-0.0169808,VALID,19.2808,VALID,23,VALID,0.323103,
2007-04-19, 01:05:00,VALID,919.404,VALID,0,VALID,100,VALID,0,VALID,19.2646,VALID,23,VALID,0.474159,
2007-04-19, 01:06:00,VALID,919.399,VALID,0,VALID,100,VALID,-0.0169808,VALID,19.2421,VALID,23,VALID,0.390625,
2007-04-19, 01:07:00,VALID,919.367,VALID,0,VALID,100,VALID,-0.0169808,VALID,19.2159,VALID,3,VALID,0.423678,
2007-04-19, 01:08:00,VALID,919.345,VALID,0,VALID,100,VALID,0,VALID,19.1932,VALID,336,VALID,0.238758,
2007-04-19, 01:09:00,VALID,919.31,VALID,0,VALID,100,VALID,0,VALID,19.2094,VALID,336,VALID,0.00799419,
2007-04-19, 01:10:00,VALID,919.274,VALID,0,VALID,100,VALID,-0.0169808,VALID,19.2321,VALID,336,VALID,0.0572917,
2007-04-19, 01:11:00,VALID,919.256,VALID,0,VALID,100,VALID,0,VALID,19.2416,VALID,336,VALID,0.00223214,
2007-04-19, 01:12:00,VALID,919.251,VALID,0,VALID,100,VALID,0,VALID,19.2483,VALID,336,VALID,0.148624,
2007-04-19, 01:13:00,VALID,919.24,VALID,0,VALID,100,VALID,0.0169808,VALID,19.2381,VALID,336,VALID,0.0102307,
2007-04-19, 01:14:00,VALID,919.221,VALID,0,VALID,100,VALID,-0.0849042,VALID,19.2191,VALID,336,VALID,0,
2007-04-19, 01:15:00,VALID,919.216,VALID,0,VALID,100,VALID,-0.101885,VALID,19.2129,VALID,336,VALID,0,
2007-04-19, 01:16:00,VALID,919.201,VALID,0,VALID,100,VALID,-0.0849042,VALID,19.1967,VALID,336,VALID,0.032848,
2007-04-19, 01:17:00,VALID,919.184,VALID,0,VALID,100,VALID,-0.101885,VALID,19.149,VALID,336,VALID,0.28497,
2007-04-19, 01:18:00,VALID,919.168,VALID,0,VALID,100,VALID,-0.101885,VALID,19.1385,VALID,336,VALID,0.118832,
2007-04-19, 01:19:00,VALID,919.153,VALID,0,VALID,100,VALID,-0.0849042,VALID,19.1615,VALID,336,VALID,0.0883557,
2007-04-19, 01:20:00,VALID,919.142,VALID,0,VALID,100,VALID,-0.101885,VALID,19.1515,VALID,336,VALID,0,
2007-04-19, 01:21:00,VALID,919.138,VALID,0,VALID,100,VALID,-0.118866,VALID,19.161,VALID,336,VALID,0.158454,
2007-04-19, 01:22:00,VALID,919.133,VALID,0,VALID,100,VALID,-0.101885,VALID,19.145,VALID,336,VALID,0.0941311,
2007-04-19, 01:23:00,VALID,919.117,VALID,0,VALID,100,VALID,-0.101885,VALID,19.1358,VALID,336,VALID,0.00479403,
2007-04-19, 01:24:00,VALID,919.116,VALID,0,VALID,100,VALID,-0.101885,VALID,19.146,VALID,336,VALID,0,
2007-04-19, 01:25:00,VALID,919.094,VALID,0,VALID,100,VALID,-0.0849042,VALID,19.1515,VALID,336,VALID,0.0242187,
2007-04-19, 01:26:00,VALID,919.091,VALID,0,VALID,100,VALID,-0.0849042,VALID,19.1612,VALID,348,VALID,0.372582,
2007-04-19, 01:27:00,VALID,919.082,VALID,0,VALID,100,VALID,-0.101885,VALID,19.1448,VALID,16,VALID,0.580487,
2007-04-19, 01:28:00,VALID,919.078,VALID,0,VALID,100,VALID,-0.101885,VALID,19.1323,VALID,13,VALID,0.628657,
2007-04-19, 01:29:00,VALID,919.061,VALID,0,VALID,100,VALID,0,VALID,19.1176,VALID,355,VALID,0.564215,
2007-04-19, 01:30:00,VALID,919.064,VALID,0,VALID,100,VALID,0,VALID,19.1406,VALID,23,VALID,1.04583,
2007-04-19, 01:31:00,VALID,919.039,VALID,0,VALID,100,VALID,0,VALID,19.1378,VALID,30,VALID,1.43973,
2007-04-19, 01:32:00,VALID,919.025,VALID,0,VALID,100,VALID,-0.0339617,VALID,19.1109,VALID,35,VALID,1.53356,
2007-04-19, 01:33:00,VALID,919.034,VALID,0,VALID,100,VALID,0,VALID,19.0887,VALID,40,VALID,0.904119,
2007-04-19, 01:34:00,VALID,919.045,VALID,0,VALID,100,VALID,0,VALID,19.0857,VALID,338,VALID,0.750391,
2007-04-19, 01:35:00,VALID,919.05,VALID,0,VALID,100,VALID,-0.0169808,VALID,19.0729,VALID,283,VALID,0.59375,
2007-04-19, 01:36:00,VALID,919.039,VALID,0,VALID,100,VALID,-0.0169808,VALID,19.0924,VALID,267,VALID,0.554506,
2007-04-19, 01:37:00,VALID,919.015,VALID,0,VALID,100,VALID,0,VALID,19.1054,VALID,249,VALID,0.492746,
2007-04-19, 01:38:00,VALID,918.982,VALID,0,VALID,100,VALID,-0.0169808,VALID,19.0986,VALID,248,VALID,0.125744,
2007-04-19, 01:39:00,VALID,918.943,VALID,0,VALID,100,VALID,0,VALID,19.0917,VALID,248,VALID,0,
2007-04-19, 01:40:00,VALID,918.913,VALID,0,VALID,100,VALID,0.0169808,VALID,19.0879,VALID,248,VALID,0.000390625,
2007-04-19, 01:41:00,VALID,918.883,VALID,0,VALID,100,VALID,-0.0339617,VALID,19.1051,VALID,248,VALID,0.00090843,
2007-04-19, 01:42:00,VALID,918.839,VALID,0,VALID,100,VALID,-0.0169808,VALID,19.1046,VALID,248,VALID,0,
2007-04-19, 01:43:00,VALID,918.803,VALID,0,VALID,100,VALID,0,VALID,19.1049,VALID,248,VALID,0.043064,
2007-04-19, 01:44:00,VALID,918.76,VALID,0,VALID,100,VALID,-0.101885,VALID,19.1098,VALID,248,VALID,0.0740412,
2007-04-19, 01:45:00,VALID,918.734,VALID,0,VALID,100,VALID,-0.101885,VALID,19.1098,VALID,248,VALID,0.326953,
2007-04-19, 01:46:00,VALID,918.706,VALID,0,VALID,100,VALID,-0.101885,VALID,19.1026,VALID,249,VALID,0.249428,
2007-04-19, 01:47:00,VALID,918.689,VALID,0,VALID,100,VALID,-0.101885,VALID,19.1096,VALID,249,VALID,0.269627,
2007-04-19, 01:48:00,VALID,918.672,VALID,0,VALID,100,VALID,-0.0849042,VALID,19.1031,VALID,6,VALID,0.608817,
2007-04-19, 01:49:00,VALID,918.666,VALID,0,VALID,100,VALID,-0.101885,VALID,19.0966,VALID,32,VALID,0.859747,
2007-04-19, 01:50:00,VALID,918.647,VALID,0,VALID,100,VALID,-0.101885,VALID,19.0642,VALID,34,VALID,0.500545,
2007-04-19, 01:51:00,VALID,918.646,VALID,0.2,VALID,100,VALID,-0.101885,VALID,19.0512,VALID,22,VALID,0.454883,
2007-04-19, 01:52:00,VALID,918.641,VALID,0,VALID,100,VALID,-0.101885,VALID,19.028,VALID,21,VALID,0.40263,
2007-04-19, 01:53:00,VALID,918.607,VALID,0,VALID,100,VALID,-0.101885,VALID,18.9863,VALID,21,VALID,0.00976563,
2007-04-19, 01:54:00,VALID,918.59,VALID,0,VALID,100,VALID,-0.0849042,VALID,18.9664,VALID,21,VALID,0.0504954,
2007-04-19, 01:55:00,VALID,918.569,VALID,0,VALID,100,VALID,-0.118866,VALID,18.9898,VALID,21,VALID,0.130435,
2007-04-19, 01:56:00,VALID,918.538,VALID,0,VALID,100,VALID,-0.101885,VALID,18.9728,VALID,21,VALID,0.227778,
2007-04-19, 01:57:00,VALID,918.532,VALID,0,VALID,100,VALID,-0.101885,VALID,18.9796,VALID,21,VALID,0.208097,
2007-04-19, 01:58:00,VALID,918.501,VALID,0,VALID,100,VALID,-0.0849042,VALID,18.9893,VALID,21,VALID,0.288281,
2007-04-19, 01:59:00,VALID,918.476,VALID,0,VALID,100,VALID,-0.101885,VALID,18.9998,VALID,10,VALID,0.632813,
2007-04-19, 02:00:00,VALID,918.458,VALID,0,VALID,100,VALID,-0.118866,VALID,18.9826,VALID,20,VALID,0.155078,
2007-04-19, 02:01:00,VALID,918.437,VALID,0,VALID,100,VALID,-0.101885,VALID,18.9967,VALID,20,VALID,0.276708,
2007-04-19, 02:02:00,VALID,918.411,VALID,0,VALID,100,VALID,-0.101885,VALID,18.9865,VALID,20,VALID,0.0115132,
2007-04-19, 02:03:00,VALID,918.393,VALID,0,VALID,100,VALID,-0.101885,VALID,18.9731,VALID,20,VALID,0.0192454,
2007-04-19, 02:04:00,VALID,918.369,VALID,0,VALID,100,VALID,-0.0849042,VALID,18.9631,VALID,20,VALID,0.0141006,
2007-04-19, 02:05:00,VALID,918.337,VALID,0,VALID,100,VALID,-0.0509425,VALID,18.9758,VALID,20,VALID,0.00093006,
2007-04-19, 02:06:00,VALID,918.307,VALID,0,VALID,100,VALID,-0.101885,VALID,18.9728,VALID,20,VALID,0.0332961,
2007-04-19, 02:07:00,VALID,918.291,VALID,0,VALID,100,VALID,-0.0849042,VALID,18.9791,VALID,20,VALID,0.629764,
2007-04-19, 02:08:00,VALID,918.291,VALID,0,VALID,100,VALID,-0.101885,VALID,19.002,VALID,21,VALID,0.800781,
2007-04-19, 02:09:00,VALID,918.272,VALID,0,VALID,100,VALID,-0.118866,VALID,18.9953,VALID,28,VALID,0.762674,
2007-04-19, 02:10:00,VALID,918.255,VALID,0,VALID,100,VALID,-0.118866,VALID,18.9993,VALID,20,VALID,0.458097,
2007-04-19, 02:11:00,VALID,918.27,VALID,0,VALID,100,VALID,-0.118866,VALID,18.9698,VALID,25,VALID,0.163542,
2007-04-19, 02:12:00,VALID,918.254,VALID,0,VALID,100,VALID,-0.118866,VALID,18.9566,VALID,25,VALID,0,
2007-04-19, 02:13:00,VALID,918.245,VALID,0,VALID,100,VALID,-0.101885,VALID,18.9664,VALID,25,VALID,0,
2007-04-19, 02:14:00,VALID,918.243,VALID,0,VALID,100,VALID,-0.0169808,VALID,18.9781,VALID,25,VALID,0,
2007-04-19, 02:15:00,VALID,918.242,VALID,0,VALID,100,VALID,0,VALID,18.9911,VALID,25,VALID,0,
2007-04-19, 02:16:00,VALID,918.23,VALID,0,VALID,100,VALID,0,VALID,19.0008,VALID,25,VALID,0,
2007-04-19, 02:17:00,VALID,918.22,VALID,0,VALID,100,VALID,0,VALID,19.0235,VALID,21,VALID,0.241629,
2007-04-19, 02:18:00,VALID,918.204,VALID,0,VALID,100,VALID,-0.0169808,VALID,19.0173,VALID,291,VALID,0.631098,
2007-04-19, 02:19:00,VALID,918.181,VALID,0,VALID,100,VALID,-0.0169808,VALID,19.0143,VALID,275,VALID,0.237262,
2007-04-19, 02:20:00,VALID,918.173,VALID,0,VALID,100,VALID,-0.0169808,VALID,19.0011,VALID,275,VALID,0,
2007-04-19, 02:21:00,VALID,918.155,VALID,0,VALID,100,VALID,0,VALID,18.9973,VALID,275,VALID,0.00111607,
2007-04-19, 02:22:00,VALID,918.152,VALID,0,VALID,100,VALID,0,VALID,19.0073,VALID,275,VALID,0.0266768,
2007-04-19, 02:23:00,VALID,918.15,VALID,0,VALID,100,VALID,0,VALID,19.011,VALID,338,VALID,0.40434,
2007-04-19, 02:24:00,VALID,918.152,VALID,0,VALID,100,VALID,-0.0169808,VALID,19.0136,VALID,30,VALID,0.530887,
2007-04-19, 02:25:00,VALID,918.159,VALID,0,VALID,100,VALID,-0.0169808,VALID,19.0006,VALID,30,VALID,0.332648,
2007-04-19, 02:26:00,VALID,918.162,VALID,0,VALID,100,VALID,0,VALID,19.0076,VALID,30,VALID,0.0218349,
2007-04-19, 02:27:00,VALID,918.169,VALID,0,VALID,100,VALID,-0.0509425,VALID,19.0046,VALID,360,VALID,0.160764,
2007-04-19, 02:28:00,VALID,918.167,VALID,0,VALID,100,VALID,-0.0169808,VALID,18.9881,VALID,219,VALID,0.365585,
2007-04-19, 02:29:00,VALID,918.158,VALID,0,VALID,100,VALID,-0.0169808,VALID,18.9661,VALID,219,VALID,0.439977,
2007-04-19, 02:30:00,VALID,918.16,VALID,0,VALID,100,VALID,0,VALID,18.9364,VALID,219,VALID,0.0695312,
2007-04-19, 02:31:00,VALID,918.142,VALID,0,VALID,100,VALID,-0.0169808,VALID,18.9163,VALID,219,VALID,0,
2007-04-19, 02:32:00,VALID,918.138,VALID,0,VALID,100,VALID,-0.0169808,VALID,18.9167,VALID,219,VALID,0,
2007-04-19, 02:33:00,VALID,918.123,VALID,0,VALID,100,VALID,-0.0509425,VALID,18.9265,VALID,219,VALID,0.00145349,
2007-04-19, 02:34:00,VALID,918.118,VALID,0,VALID,100,VALID,-0.0169808,VALID,18.92,VALID,219,VALID,0,
2007-04-19, 02:35:00,VALID,918.124,VALID,0,VALID,100,VALID,-0.0339617,VALID,18.9367,VALID,219,VALID,0,
2007-04-19, 02:36:00,VALID,918.12,VALID,0,VALID,100,VALID,-0.0509425,VALID,18.9462,VALID,219,VALID,0.132422,
2007-04-19, 02:37:00,VALID,918.108,VALID,0,VALID,100,VALID,-0.0509425,VALID,18.9594,VALID,219,VALID,0.0255335,
2007-04-19, 02:38:00,VALID,918.119,VALID,0,VALID,100,VALID,-0.0509425,VALID,18.9629,VALID,219,VALID,0.038872,
2007-04-19, 02:39:00,VALID,918.112,VALID,0,VALID,100,VALID,-0.0339617,VALID,18.9626,VALID,219,VALID,0.00520833,
2007-04-19, 02:40:00,VALID,918.109,VALID,0,VALID,100,VALID,0,VALID,18.9691,VALID,219,VALID,0.116186,
2007-04-19, 02:41:00,VALID,918.1,VALID,0,VALID,100,VALID,-0.0509425,VALID,18.9402,VALID,219,VALID,0.0399709,
2007-04-19, 02:42:00,VALID,918.098,VALID,0,VALID,100,VALID,-0.0169808,VALID,18.9003,VALID,219,VALID,0,
2007-04-19, 02:43:00,VALID,918.097,VALID,0,VALID,100,VALID,-0.0169808,VALID,18.9008,VALID,223,VALID,0.527876,
2007-04-19, 02:44:00,VALID,918.095,VALID,0,VALID,100,VALID,0,VALID,18.891,VALID,243,VALID,0.753906,
2007-04-19, 02:45:00,VALID,918.104,VALID,0,VALID,100,VALID,-0.0339617,VALID,18.8748,VALID,246,VALID,0.755766,
2007-04-19, 02:46:00,VALID,918.091,VALID,0,VALID,100,VALID,-0.0169808,VALID,18.8947,VALID,238,VALID,0.335565,
2007-04-19, 02:47:00,VALID,918.089,VALID,0,VALID,100,VALID,0,VALID,18.8813,VALID,238,VALID,0,
2007-04-19, 02:48:00,VALID,918.071,VALID,0,VALID,100,VALID,-0.0509425,VALID,18.8773,VALID,239,VALID,0.0694247,
2007-04-19, 02:49:00,VALID,918.056,VALID,0,VALID,100,VALID,-0.0169808,VALID,18.8947,VALID,309,VALID,0.557736,
2007-04-19, 02:50:00,VALID,918.055,VALID,0,VALID,100,VALID,-0.0339617,VALID,18.91,VALID,29,VALID,0.618712,
2007-04-19, 02:51:00,VALID,918.025,VALID,0,VALID,100,VALID,0,VALID,18.9165,VALID,30,VALID,0.43314,
2007-04-19, 02:52:00,VALID,918.022,VALID,0,VALID,100,VALID,-0.0509425,VALID,18.9325,VALID,30,VALID,0.104883,
2007-04-19, 02:53:00,VALID,918.009,VALID,0,VALID,100,VALID,-0.0509425,VALID,18.9304,VALID,30,VALID,0.29652,
2007-04-19, 02:54:00,VALID,917.997,VALID,0,VALID,100,VALID,-0.0509425,VALID,18.9137,VALID,30,VALID,0.0285247,
2007-04-19, 02:55:00,VALID,917.997,VALID,0,VALID,100,VALID,-0.0849042,VALID,18.9077,VALID,30,VALID,0,
2007-04-19, 02:56:00,VALID,917.987,VALID,0,VALID,100,VALID,-0.0849042,VALID,18.8853,VALID,119,VALID,0.211739,
2007-04-19, 02:57:00,VALID,917.984,VALID,0,VALID,100,VALID,-0.0849042,VALID,18.872,VALID,125,VALID,0.127604,
2007-04-19, 02:58:00,VALID,918.013,VALID,0,VALID,100,VALID,-0.0679233,VALID,18.8623,VALID,170,VALID,0.394436,
2007-04-19, 02:59:00,VALID,918.022,VALID,0,VALID,100,VALID,-0.0509425,VALID,18.8591,VALID,235,VALID,0.498285,
2007-04-19, 03:00:00,VALID,918.028,VALID,0,VALID,100,VALID,-0.0849042,VALID,18.8428,VALID,240,VALID,0.338672,
2007-04-19, 03:01:00,VALID,918.036,VALID,0,VALID,100,VALID,-0.0679233,VALID,18.8231,VALID,240,VALID,0.0513672,
2007-04-19, 03:02:00,VALID,918.035,VALID,0,VALID,100,VALID,-0.0679233,VALID,18.8523,VALID,259,VALID,0.148438,
2007-04-19, 03:03:00,VALID,918.025,VALID,0,VALID,100,VALID,-0.0509425,VALID,18.8785,VALID,348,VALID,0.727307,
2007-04-19, 03:04:00,VALID,918.016,VALID,0,VALID,100,VALID,-0.0169808,VALID,18.8783,VALID,30,VALID,0.815518,
2007-04-19, 03:05:00,VALID,918.017,VALID,0,VALID,100,VALID,-0.0339617,VALID,18.8516,VALID,38,VALID,0.392149,
2007-04-19, 03:06:00,VALID,918.02,VALID,0,VALID,100,VALID,-0.0509425,VALID,18.8526,VALID,38,VALID,0.261242,
2007-04-19, 03:07:00,VALID,918.025,VALID,0,VALID,100,VALID,-0.0849042,VALID,18.8262,VALID,351,VALID,0.245046,
2007-04-19, 03:08:00,VALID,918.027,VALID,0,VALID,100,VALID,-0.0849042,VALID,18.8104,VALID,285,VALID,0.418423,
2007-04-19, 03:09:00,VALID,918.039,VALID,0,VALID,100,VALID,-0.0339617,VALID,18.7909,VALID,280,VALID,0.471726,
2007-04-19, 03:10:00,VALID,918.042,VALID,0,VALID,100,VALID,-0.0339617,VALID,18.771,VALID,280,VALID,0.47237,
2007-04-19, 03:11:00,VALID,918.031,VALID,0,VALID,100,VALID,-0.0169808,VALID,18.7613,VALID,280,VALID,0.417383,
2007-04-19, 03:12:00,VALID,918.033,VALID,0,VALID,100,VALID,-0.0339617,VALID,18.7349,VALID,280,VALID,0.0406977,
2007-04-19, 03:13:00,VALID,918.014,VALID,0,VALID,100,VALID,-0.0679233,VALID,18.7518,VALID,280,VALID,0,
2007-04-19, 03:14:00,VALID,918.003,VALID,0,VALID,100,VALID,-0.101885,VALID,18.7485,VALID,280,VALID,0,
2007-04-19, 03:15:00,VALID,918.001,VALID,0,VALID,100,VALID,-0.0849042,VALID,18.7523,VALID,280,VALID,0,
2007-04-19, 03:16:00,VALID,918.003,VALID,0,VALID,100,VALID,-0.0849042,VALID,18.7488,VALID,280,VALID,0,
2007-04-19, 03:17:00,VALID,917.989,VALID,0,VALID,100,VALID,-0.0509425,VALID,18.7587,VALID,280,VALID,0.0397727,
2007-04-19, 03:18:00,VALID,917.985,VALID,0,VALID,100,VALID,-0.0679233,VALID,18.7615,VALID,280,VALID,0,
2007-04-19, 03:19:00,VALID,917.973,VALID,0,VALID,100,VALID,-0.0509425,VALID,18.7715,VALID,280,VALID,0.015253,
2007-04-19, 03:20:00,VALID,917.984,VALID,0,VALID,100,VALID,-0.0679233,VALID,18.765,VALID,280,VALID,0.127858,
2007-04-19, 03:21:00,VALID,917.981,VALID,0,VALID,100,VALID,-0.0679233,VALID,18.752,VALID,280,VALID,0.177734,
2007-04-19, 03:22:00,VALID,917.981,VALID,0,VALID,100,VALID,-0.0509425,VALID,18.7455,VALID,280,VALID,0.125,
2007-04-19, 03:23:00,VALID,917.977,VALID,0,VALID,100,VALID,-0.0679233,VALID,18.7455,VALID,280,VALID,0.157813,
2007-04-19, 03:24:00,VALID,917.977,VALID,0,VALID,100,VALID,-0.0169808,VALID,18.7321,VALID,279,VALID,0.303646,
2007-04-19, 03:25:00,VALID,917.95,VALID,0,VALID,100,VALID,-0.0339617,VALID,18.7358,VALID,270,VALID,0.505907,
2007-04-19, 03:26:00,VALID,917.95,VALID,0,VALID,100,VALID,-0.0509425,VALID,18.7154,VALID,256,VALID,0.1516,
2007-04-19, 03:27:00,VALID,917.926,VALID,0,VALID,100,VALID,-0.0339617,VALID,18.7224,VALID,256,VALID,0.185268,
2007-04-19, 03:28:00,VALID,917.903,VALID,0,VALID,100,VALID,0,VALID,18.7161,VALID,256,VALID,0.123828,
2007-04-19, 03:29:00,VALID,917.907,VALID,0,VALID,100,VALID,-0.0339617,VALID,18.7096,VALID,256,VALID,0.0204613,
2007-04-19, 03:30:00,VALID,917.881,VALID,0,VALID,100,VALID,-0.0339617,VALID,18.7066,VALID,256,VALID,0.11109,
2007-04-19, 03:31:00,VALID,917.884,VALID,0,VALID,100,VALID,-0.0169808,VALID,18.6999,VALID,256,VALID,0.00279018,
2007-04-19, 03:32:00,VALID,917.885,VALID,0,VALID,100,VALID,-0.0339617,VALID,18.6837,VALID,256,VALID,0.00106534,
2007-04-19, 03:33:00,VALID,917.899,VALID,0,VALID,100,VALID,-0.0169808,VALID,18.6837,VALID,256,VALID,0.133903,
2007-04-19, 03:34:00,VALID,917.896,VALID,0,VALID,100,VALID,-0.0339617,VALID,18.6804,VALID,256,VALID,0.226758,
2007-04-19, 03:35:00,VALID,917.919,VALID,0,VALID,100,VALID,-0.0169808,VALID,18.6637,VALID,256,VALID,0.00228659,
2007-04-19, 03:36:00,VALID,917.923,VALID,0,VALID,100,VALID,-0.0169808,VALID,18.6573,VALID,256,VALID,0.074314,
2007-04-19, 03:37:00,VALID,917.929,VALID,0,VALID,100,VALID,0,VALID,18.6607,VALID,256,VALID,0.0663194,
2007-04-19, 03:38:00,VALID,917.941,VALID,0,VALID,100,VALID,0,VALID,18.667,VALID,256,VALID,0.192522,
2007-04-19, 03:39:00,VALID,917.947,VALID,0,VALID,100,VALID,-0.0169808,VALID,18.664,VALID,256,VALID,0.443668,
2007-04-19, 03:40:00,VALID,917.964,VALID,0,VALID,100,VALID,0,VALID,18.654,VALID,295,VALID,0.505814,